KM6ZMV Weather Reports


time (UTC)temp
C
wind
direction
speed
KPH
gust
KPH
rain 1hr
cm
rain 24hr
cm
rain mn
cm
humidity
%
barometer
mb
20260503200013 29 339 4.8 14.5 0.00 0.00 0.00 37 1009.1
20260503195504 29 117 3.2 16.1 0.00 0.00 0.00 39 1009.2
20260503195006 28 293 8.0 16.1 0.00 0.00 0.00 39 1009.3
20260503194516 28 12 3.2 14.5 0.00 0.00 0.00 40 1009.3
20260503194005 28 298 6.4 14.5 0.00 0.00 0.00 41 1009.3
20260503193506 27 10 4.8 12.9 0.00 0.00 0.00 40 1009.4
20260503193024 27 301 3.2 12.9 0.00 0.00 0.00 41 1009.4
20260503192506 27 349 6.4 12.9 0.00 0.00 0.00 41 1009.5
20260503192002 27 17 3.2 9.7 0.00 0.00 0.00 41 1009.7
20260503191507 27 323 3.2 11.3 0.00 0.00 0.00 43 1009.8
20260503191004 27 9 3.2 11.3 0.00 0.00 0.00 44 1009.8
20260503190507 26 9 3.2 14.5 0.00 0.00 0.00 44 1009.8
20260503190012 26 360 4.8 14.5 0.00 0.00 0.00 44 1009.8
20260503185503 26 9 1.6 9.7 0.00 0.00 0.00 45 1009.8
20260503185003 25 346 3.2 12.9 0.00 0.00 0.00 47 1009.9
20260503184517 25 5 3.2 12.9 0.00 0.00 0.00 47 1010.0
20260503184007 25 301 8.0 12.9 0.00 0.00 0.00 47 1010.0
20260503183507 25 286 4.8 11.3 0.00 0.00 0.00 47 1010.0
20260503183025 25 315 0.0 12.9 0.00 0.00 0.00 48 1010.1
20260503182513 25 9 6.4 12.9 0.00 0.00 0.00 47 1010.2
20260503182012 25 269 3.2 12.9 0.00 0.00 0.00 49 1010.1
20260503181528 24 343 1.6 12.9 0.00 0.00 0.00 50 1010.2
20260503181003 23 335 4.8 11.3 0.00 0.00 0.00 51 1010.3
20260503180505 23 352 1.6 12.9 0.00 0.00 0.00 52 1010.4
20260503180022 23 352 6.4 12.9 0.00 0.00 0.00 52 1010.5
20260503175504 23 67 4.8 9.7 0.00 0.00 0.00 52 1010.6
20260503175005 23 327 3.2 11.3 0.00 0.00 0.00 53 1010.7
20260503174516 22 335 4.8 14.5 0.00 0.00 0.00 53 1010.6
20260503174010 22 9 6.4 14.5 0.00 0.00 0.00 54 1010.7
20260503173507 22 321 3.2 9.7 0.00 0.00 0.00 56 1010.7
20260503173036 21 24 3.2 12.9 0.00 0.00 0.00 56 1010.9
20260503172509 21 9 3.2 14.5 0.00 0.00 0.00 58 1010.9
20260503172010 21 352 6.4 14.5 0.00 0.00 0.00 59 1010.9
20260503171533 21 360 9.7 14.5 0.00 0.00 0.00 59 1011.0
20260503171006 21 342 6.4 14.5 0.00 0.00 0.00 61 1010.9
20260503170511 21 330 3.2 14.5 0.00 0.00 0.00 61 1010.9
20260503151007 15 19 1.6 4.8 0.00 0.00 0.00 83 1011.5
20260503150507 15 19 3.2 3.2 0.00 0.00 0.00 85 1011.5
20260503131007 11 9 0.0 3.2 0.00 0.00 0.00 92 1011.0
20260503130507 11 9 1.6 3.2 0.00 0.00 0.00 92 1011.0
20260503110503 12 5 3.2 3.2 0.00 0.00 0.00 90 1011.3
20260503090504 13 183 0.0 3.2 0.00 0.00 0.00 88 1011.5
20260503081518 13 57 0.0 3.2 0.00 0.00 0.00 87 1011.6
20260503081003 13 57 0.0 3.2 0.00 0.00 0.00 87 1011.4
20260503080503 13 77 0.0 3.2 0.00 0.00 0.00 86 1011.4
20260503072507 14 48 0.0 3.2 0.00 0.00 0.00 85 1011.6
20260503072004 14 48 0.0 3.2 0.00 0.00 0.00 85 1011.5
20260503071505 14 48 0.0 3.2 0.00 0.00 0.00 85 1011.6
20260503071004 14 91 0.0 3.2 0.00 0.00 0.00 84 1011.5
20260503070503 14 99 0.0 3.2 0.00 0.00 0.00 84 1011.6
20260503055002 16 168 0.0 3.2 0.00 0.00 0.00 79 1011.6
20260503054517 16 137 0.0 3.2 0.00 0.00 0.00 78 1011.5
20260503054004 16 9 0.0 3.2 0.00 0.00 0.00 77 1011.4
20260503053504 16 9 0.0 3.2 0.00 0.00 0.00 77 1011.4
20260503053017 16 5 0.0 3.2 0.00 0.00 0.00 76 1011.5
20260503052505 17 12 0.0 4.8 0.00 0.00 0.00 75 1011.5
20260503052004 17 19 0.0 8.0 0.00 0.00 0.00 75 1011.5
20260503051521 17 325 3.2 8.0 0.00 0.00 0.00 75 1011.4
20260503051007 17 18 4.8 6.4 0.00 0.00 0.00 75 1011.6
20260503050503 17 327 1.6 6.4 0.00 0.00 0.00 75 1011.6
20260503050019 17 352 3.2 6.4 0.00 0.00 0.00 74 1011.8
20260503045506 17 315 0.0 3.2 0.00 0.00 0.00 74 1012.0
20260503045004 17 315 0.0 4.8 0.00 0.00 0.00 74 1011.9
20260503044522 17 26 0.0 4.8 0.00 0.00 0.00 74 1012.0
20260503044006 17 88 1.6 4.8 0.00 0.00 0.00 75 1012.0
20260503043506 17 79 3.2 4.8 0.00 0.00 0.00 75 1011.9
20260503043016 17 65 0.0 3.2 0.00 0.00 0.00 74 1011.9
20260503042504 17 90 0.0 3.2 0.00 0.00 0.00 75 1011.7
20260503042004 17 352 1.6 3.2 0.00 0.00 0.00 73 1011.6
20260503041518 17 338 0.0 3.2 0.00 0.00 0.00 73 1011.6
20260503041004 17 303 0.0 3.2 0.00 0.00 0.00 73 1011.6
20260503040506 17 205 0.0 3.2 0.00 0.00 0.00 72 1011.6
20260503040027 17 121 0.0 3.2 0.00 0.00 0.00 72 1011.6
20260503035506 17 121 0.0 3.2 0.00 0.00 0.00 71 1011.6
20260503035004 17 134 0.0 3.2 0.00 0.00 0.00 71 1011.5
20260503034518 17 82 0.0 3.2 0.00 0.00 0.00 71 1011.5
20260503034005 18 106 0.0 3.2 0.00 0.00 0.00 70 1011.5
20260503033504 18 151 0.0 3.2 0.00 0.00 0.00 71 1011.4
20260503033015 18 39 1.6 3.2 0.00 0.00 0.00 70 1011.3
20260503032507 18 104 1.6 3.2 0.00 0.00 0.00 70 1011.3
20260503032008 18 90 1.6 3.2 0.00 0.00 0.00 70 1011.3
20260503031517 18 171 0.0 3.2 0.00 0.00 0.00 69 1011.2
20260503031007 18 209 0.0 4.8 0.00 0.00 0.00 69 1011.3
20260503030505 18 192 1.6 8.0 0.00 0.00 0.00 69 1011.2
20260503030024 18 211 3.2 8.0 0.00 0.00 0.00 69 1011.2
20260503025505 18 196 3.2 12.9 0.00 0.00 0.00 69 1011.3
20260503025005 18 192 3.2 16.1 0.00 0.00 0.00 68 1011.3
20260503024516 18 255 3.2 19.3 0.00 0.00 0.00 68 1011.3
20260503024006 18 195 9.7 19.3 0.00 0.00 0.00 68 1011.3
20260503023510 18 219 6.4 24.1 0.00 0.00 0.00 67 1011.3
20260503023033 19 211 6.4 29.0 0.00 0.00 0.00 66 1011.4
20260503022503 19 181 4.8 29.0 0.00 0.00 0.00 66 1011.3
20260503022004 20 173 12.9 24.1 0.00 0.00 0.00 64 1011.3
20260503021517 20 172 4.8 19.3 0.00 0.00 0.00 62 1011.2
20260503021004 20 211 8.0 19.3 0.00 0.00 0.00 62 1011.2
20260503020504 21 202 8.0 17.7 0.00 0.00 0.00 61 1011.1
20260503020020 21 234 3.2 9.7 0.00 0.00 0.00 61 1010.8
20260503015508 21 215 3.2 11.3 0.00 0.00 0.00 60 1010.6
20260503015007 21 240 3.2 14.5 0.00 0.00 0.00 59 1010.5
20260503014517 21 207 4.8 14.5 0.00 0.00 0.00 58 1010.4
20260503014006 22 182 3.2 8.0 0.00 0.00 0.00 56 1010.3
20260503013506 22 243 1.6 3.2 0.00 0.00 0.00 55 1010.4
20260503013022 22 245 0.0 4.8 0.00 0.00 0.00 55 1010.3
20260503012506 22 194 0.0 4.8 0.00 0.00 0.00 55 1010.3
20260503012004 22 227 0.0 3.2 0.00 0.00 0.00 55 1010.3
20260503011517 22 225 1.6 3.2 0.00 0.00 0.00 54 1010.2
20260503011006 22 296 0.0 4.8 0.00 0.00 0.00 55 1010.1
20260503010509 22 254 3.2 4.8 0.00 0.00 0.00 54 1010.2
20260503010030 22 295 0.0 3.2 0.00 0.00 0.00 54 1010.2
20260503005507 22 293 0.0 4.8 0.00 0.00 0.00 55 1010.2
20260503005012 22 296 1.6 6.4 0.00 0.00 0.00 54 1010.2
20260503004521 23 360 3.2 8.0 0.00 0.00 0.00 53 1010.2
20260503004007 22 340 3.2 8.0 0.00 0.00 0.00 53 1010.3
20260503003508 23 309 0.0 6.4 0.00 0.00 0.00 52 1010.3
20260503003019 23 308 1.6 6.4 0.00 0.00 0.00 52 1010.2
20260503002509 22 352 0.0 6.4 0.00 0.00 0.00 54 1010.2
20260503002009 23 307 0.0 8.0 0.00 0.00 0.00 53 1010.3
20260503001522 22 283 3.2 8.0 0.00 0.00 0.00 52 1010.3
20260503001008 22 9 3.2 8.0 0.00 0.00 0.00 54 1010.3
20260503000507 21 327 1.6 9.7 0.00 0.00 0.00 55 1010.4
20260503000025 22 306 4.8 9.7 0.00 0.00 0.00 54 1010.4
20260502235507 22 313 0.0 8.0 0.00 0.00 0.00 55 1010.4
20260502235007 21 305 3.2 11.3 0.00 0.00 0.00 54 1010.5
20260502234520 21 352 3.2 11.3 0.00 0.00 0.00 56 1010.5
20260502234008 21 299 3.2 11.3 0.00 0.00 0.00 55 1010.7
20260502233509 21 294 3.2 11.3 0.00 0.00 0.00 55 1010.8
20260502233022 21 268 3.2 11.3 0.00 0.00 0.00 54 1010.9
20260502232507 21 295 1.6 6.4 0.00 0.00 0.00 56 1011.0
20260502232005 21 314 1.6 12.9 0.00 0.00 0.00 55 1010.9
20260502231523 21 302 3.2 14.5 0.00 0.00 0.00 55 1010.9
20260502231010 21 350 4.8 14.5 0.00 0.00 0.00 56 1011.1
20260502230507 20 11 1.6 12.9 0.00 0.00 0.00 56 1011.1
20260502230018 21 281 4.8 12.9 0.00 0.00 0.00 55 1011.1
20260502225506 21 254 3.2 8.0 0.00 0.00 0.00 57 1011.2
20260502225007 21 352 1.6 11.3 0.00 0.00 0.00 55 1011.3
20260502224523 21 314 4.8 11.3 0.00 0.00 0.00 56 1011.3
20260502224008 21 23 1.6 9.7 0.00 0.00 0.00 57 1011.3
20260502223508 21 286 1.6 9.7 0.00 0.00 0.00 55 1011.5
20260502223022 21 341 3.2 9.7 0.00 0.00 0.00 55 1011.6
20260502222505 20 230 3.2 14.5 0.00 0.00 0.00 58 1011.6
20260502222008 20 336 3.2 14.5 0.00 0.00 0.00 56 1011.7
20260502221523 20 322 6.4 14.5 0.00 0.00 0.00 57 1011.9
20260502221005 20 9 3.2 14.5 0.00 0.00 0.00 59 1012.0
20260502220506 19 284 3.2 8.0 0.00 0.00 0.00 60 1012.0
20260502220023 20 294 4.8 12.9 0.00 0.00 0.00 59 1012.3
20260502215508 20 298 3.2 12.9 0.00 0.00 0.00 60 1012.2
20260502215007 20 36 1.6 9.7 0.00 0.00 0.00 58 1012.2
20260502214522 20 291 3.2 12.9 0.00 0.00 0.00 58 1012.3
20260502214007 20 38 3.2 12.9 0.00 0.00 0.00 58 1012.4
20260502213507 20 52 3.2 14.5 0.00 0.00 0.00 60 1012.5
20260502213030 20 286 6.4 14.5 0.00 0.00 0.00 58 1012.6
20260502212508 20 25 3.2 12.9 0.00 0.00 0.00 58 1012.7
20260502212007 20 28 0.0 12.9 0.00 0.00 0.00 60 1012.7
20260502211523 19 10 4.8 12.9 0.00 0.00 0.00 61 1012.7
20260502211007 18 334 1.6 12.9 0.00 0.00 0.00 63 1012.7
20260502210507 18 292 3.2 14.5 0.00 0.00 0.00 62 1012.7
20260502210024 18 352 4.8 14.5 0.00 0.00 0.00 61 1012.8
20260502205512 18 33 3.2 11.3 0.00 0.00 0.00 63 1013.1
20260502205010 17 360 1.6 6.4 0.00 0.00 0.00 65 1013.3
20260502204527 16 191 1.6 8.0 0.00 0.00 0.00 67 1013.4
20260502204009 17 238 1.6 12.9 0.00 0.00 0.00 66 1013.5
20260502203508 17 314 6.4 12.9 0.00 0.00 0.00 66 1013.5
20260502203024 17 52 4.8 12.9 0.00 0.00 0.00 65 1013.5
20260502202507 16 9 1.6 11.3 0.00 0.00 0.00 68 1013.5
20260502202008 16 223 4.8 11.3 0.00 0.00 0.00 68 1013.5
20260502201524 16 204 1.6 6.4 0.00 0.00 0.00 68 1013.6
20260502201011 16 242 1.6 12.9 0.00 0.00 0.00 68 1013.7
20260502200510 16 203 3.2 12.9 0.00 0.00 0.00 67 1013.7